Location: Banksville Park
(38.5557°N, 75.1182°W)
Time: 13:17:03
(UTC+00:00)

DELTA 2 R/B (1) - Pass Details

Date: 19 September 2020
Orbit: 790 x 803 km, 39.6° (Epoch: 22 October)

Event Time Altitude Azimuth Distance (km) Brightness Sun altitude
Rises 00:36:54 0° 284° (WNW) 3,277 8.4 -18.9°
Reaches altitude 10° 00:39:24 10° 280° (W) 2,347 7.2 -19.3°
Maximum altitude 00:44:51 61° 202° (SSW) 892 3.8 -20.4°
Enters shadow 00:46:46 39° 140° (SE) 1,176 4.0 -20.7°
